This is the latest recevied weather packets stored in our database for station/object IZ6UQU-13. If no packets are shown the sender has not sent any weather packets the latest 10 day(s).
| Time | Temp. | Humidity | Pressure | Rain* | Wind** | Luminosity | Snow |
|---|---|---|---|---|---|---|---|
| 1777817707 | 21.11° C | 52% | 958.5 hPa | 0 mm | - | - | - |
| 1777817406 | 21.11° C | 50% | 958.6 hPa | 0 mm | - | - | - |
| 1777817106 | 21.11° C | 50% | 958.5 hPa | 0 mm | - | - | - |
| 1777816807 | 21.11° C | 50% | 958.5 hPa | 0 mm | - | - | - |
| 1777816507 | 21.67° C | 50% | 958.5 hPa | 0 mm | - | - | - |
| 1777816208 | 21.67° C | 49% | 958.6 hPa | 0 mm | - | - | - |
| 1777815907 | 21.67° C | 50% | 958.5 hPa | 0 mm | - | - | - |
| 1777815607 | 22.22° C | 47% | 958.4 hPa | 0 mm | - | - | - |
| 1777815307 | 22.22° C | 45% | 958.5 hPa | 0 mm | - | - | - |
| 1777815008 | 22.22° C | 33% | 958.4 hPa | 0 mm | - | - | - |
| 1777814707 | 22.78° C | 34% | 958.6 hPa | 0 mm | - | - | - |
| 1777814407 | 22.78° C | 34% | 958.4 hPa | 0 mm | - | - | - |
| 1777814107 | 22.78° C | 33% | 958.5 hPa | 0 mm | - | - | - |
| 1777813807 | 22.78° C | 35% | 958.6 hPa | 0 mm | - | - | - |
| 1777813507 | 22.22° C | 35% | 958.7 hPa | 0 mm | - | - | - |
| 1777813207 | 21.67° C | 34% | 958.9 hPa | 0 mm | - | - | - |
| 1777812907 | 22.22° C | 36% | 959 hPa | 0 mm | - | - | - |
| 1777812607 | 22.22° C | 35% | 959 hPa | 0 mm | - | - | - |
| 1777812307 | 21.67° C | 36% | 959 hPa | 0 mm | - | - | - |
| 1777812007 | 21.67° C | 36% | 959 hPa | 0 mm | - | - | - |
| 1777811707 | 21.11° C | 36% | 959.1 hPa | 0 mm | - | - | - |
| 1777811408 | 20.56° C | 36% | 959.1 hPa | 0 mm | - | - | - |
| 1777811108 | 21.11° C | 36% | 959.3 hPa | 0 mm | - | - | - |
| 1777810808 | 21.67° C | 38% | 959.3 hPa | 0 mm | - | - | - |
| 1777810508 | 21.11° C | 35% | 959.5 hPa | 0 mm | - | - | - |
* Rain latest hour (hover to see other rain measurements)
** Current wind speed in m/s (hover to see current wind gust speed)